DLH401 EDDF-KJFK

Flight info

Callsign DLH401
Flight time N/A
Altitude 36000
Route OBOKA3W/25C OBOKA Z28 DIBIR DCT BUDIP DCT RAVLO Y70 OTBED L60 PENIL M144 BAGSO DCT ADBUS DCT DOGAL/M083F370 NATC ELSIR/N0475F380 N402C ALLEX DCT ENE PARCH4
Aircraft A346/H-SDE2E3FGHIJ3J4J5M1RWXY/LB1D1

Departure

Time N/A
Airport Frankfurt Main Airport (EDDF)

Arrival

Time 2026-05-07 19:31
Airport John F. Kennedy International Airport (KJFK)
Time Latitude Longitude Altitude Speed Heading
2026-05-07 17:01 48.44553 -55.92537 37974 ft 423 kts 244°
2026-05-07 17:01 48.42204 -56.00589 37973 ft 422 kts 244°
2026-05-07 17:02 48.39835 -56.08677 37968 ft 422 kts 244°
2026-05-07 17:02 48.37449 -56.16793 37969 ft 422 kts 244°
2026-05-07 17:03 48.35066 -56.24874 37962 ft 421 kts 244°
2026-05-07 17:03 48.32671 -56.32967 37963 ft 421 kts 244°
2026-05-07 17:04 48.30297 -56.40958 37958 ft 419 kts 244°
2026-05-07 17:04 48.28316 -56.47614 37950 ft 418 kts 244°
2026-05-07 17:05 48.25934 -56.55587 37953 ft 418 kts 244°
2026-05-07 17:05 48.23546 -56.63558 37953 ft 418 kts 244°
2026-05-07 17:06 48.21152 -56.71518 37963 ft 418 kts 244°
2026-05-07 17:06 48.18751 -56.79476 37963 ft 418 kts 244°
2026-05-07 17:07 48.16343 -56.87439 37977 ft 418 kts 244°
2026-05-07 17:07 48.13926 -56.95399 37977 ft 418 kts 244°
2026-05-07 17:08 48.11511 -57.03330 37994 ft 418 kts 244°
2026-05-07 17:08 48.09090 -57.11248 37983 ft 417 kts 244°
2026-05-07 17:09 48.06681 -57.19104 37999 ft 417 kts 244°
2026-05-07 17:09 48.04266 -57.26975 38009 ft 415 kts 244°
2026-05-07 17:10 48.01850 -57.34807 38005 ft 414 kts 244°
2026-05-07 17:10 47.99429 -57.42630 37993 ft 414 kts 244°
2026-05-07 17:11 47.97003 -57.50442 37974 ft 414 kts 244°
2026-05-07 17:11 47.94561 -57.58264 37994 ft 415 kts 244°
2026-05-07 17:12 47.92124 -57.66080 37994 ft 415 kts 244°
2026-05-07 17:12 47.89697 -57.73834 37976 ft 415 kts 244°
2026-05-07 17:13 47.87245 -57.81639 37975 ft 415 kts 244°
2026-05-07 17:13 47.84789 -57.89430 37975 ft 415 kts 244°
2026-05-07 17:14 47.82321 -57.97227 37972 ft 417 kts 244°
2026-05-07 17:14 47.79839 -58.05061 37989 ft 416 kts 244°
2026-05-07 17:15 47.77371 -58.12829 37950 ft 413 kts 244°
2026-05-07 17:15 47.74902 -58.20562 37948 ft 413 kts 244°
2026-05-07 17:16 47.72430 -58.28282 37954 ft 413 kts 244°
2026-05-07 17:16 47.69976 -58.35924 37945 ft 411 kts 244°
2026-05-07 17:17 47.67514 -58.43569 37930 ft 410 kts 244°
2026-05-07 17:17 47.65044 -58.51213 37923 ft 410 kts 243°
2026-05-07 17:18 47.62572 -58.58843 37922 ft 410 kts 243°
2026-05-07 17:18 47.60092 -58.66476 37912 ft 410 kts 243°
2026-05-07 17:19 47.57615 -58.74077 37899 ft 408 kts 243°
2026-05-07 17:19 47.55142 -58.81641 37891 ft 407 kts 243°
2026-05-07 17:20 47.52662 -58.89203 37889 ft 407 kts 243°
2026-05-07 17:20 47.50173 -58.96771 37879 ft 407 kts 243°
2026-05-07 17:21 47.47691 -59.04299 37858 ft 407 kts 243°
2026-05-07 17:21 47.45214 -59.11778 37837 ft 406 kts 243°
2026-05-07 17:22 47.42728 -59.19277 37842 ft 406 kts 243°
2026-05-07 17:22 47.40251 -59.26724 37835 ft 406 kts 243°
2026-05-07 17:23 47.37735 -59.34264 37836 ft 406 kts 243°
2026-05-07 17:23 47.35233 -59.41743 37821 ft 406 kts 243°
2026-05-07 17:24 47.32726 -59.49206 37816 ft 405 kts 243°
2026-05-07 17:24 47.30217 -59.56664 37813 ft 405 kts 243°
2026-05-07 17:25 47.27722 -59.64058 37839 ft 405 kts 243°
2026-05-07 17:25 47.25195 -59.71532 37804 ft 407 kts 243°
2026-05-07 17:26 47.22659 -59.78999 37788 ft 408 kts 243°
2026-05-07 17:26 47.20116 -59.86461 37785 ft 406 kts 243°
2026-05-07 17:27 47.17581 -59.93886 37788 ft 405 kts 243°
2026-05-07 17:27 47.15042 -60.01302 37770 ft 405 kts 243°
2026-05-07 17:28 47.12501 -60.08706 37769 ft 405 kts 243°
2026-05-07 17:28 47.09957 -60.16095 37762 ft 405 kts 243°
2026-05-07 17:29 47.07421 -60.23438 37767 ft 405 kts 243°
2026-05-07 17:29 47.04866 -60.30817 37741 ft 405 kts 243°
2026-05-07 17:30 47.02299 -60.38208 37742 ft 405 kts 243°
2026-05-07 17:30 46.99738 -60.45567 37757 ft 405 kts 242°
2026-05-07 17:31 46.97161 -60.52949 37742 ft 407 kts 242°
2026-05-07 17:31 46.94568 -60.60347 37720 ft 407 kts 242°
2026-05-07 17:32 46.91979 -60.67719 37710 ft 407 kts 242°
2026-05-07 17:32 46.89381 -60.75099 37730 ft 407 kts 242°
2026-05-07 17:33 46.86795 -60.82422 37726 ft 407 kts 242°
2026-05-07 17:33 46.84191 -60.89774 37723 ft 407 kts 242°
2026-05-07 17:34 46.81586 -60.97106 37708 ft 405 kts 242°
2026-05-07 17:34 46.78988 -61.04403 37702 ft 404 kts 242°
2026-05-07 17:35 46.76386 -61.11691 37704 ft 404 kts 242°
2026-05-07 17:35 46.73778 -61.18975 37708 ft 404 kts 242°
2026-05-07 17:36 46.71171 -61.26243 37719 ft 403 kts 242°
2026-05-07 17:36 46.68562 -61.33486 37709 ft 401 kts 242°
2026-05-07 17:37 46.65968 -61.40669 37704 ft 399 kts 242°
2026-05-07 17:37 46.63394 -61.47782 37713 ft 399 kts 242°
2026-05-07 17:38 46.60794 -61.54948 37713 ft 400 kts 242°
2026-05-07 17:38 46.58193 -61.62096 37720 ft 399 kts 242°
2026-05-07 17:39 46.55587 -61.69234 37708 ft 398 kts 242°
2026-05-07 17:39 46.52999 -61.76309 37719 ft 396 kts 242°
2026-05-07 17:40 46.50412 -61.83364 37725 ft 395 kts 242°
2026-05-07 17:40 46.47818 -61.90417 37730 ft 395 kts 242°
2026-05-07 17:41 46.45221 -61.97460 37777 ft 395 kts 242°
2026-05-07 17:41 46.42624 -62.04494 37736 ft 395 kts 241°
2026-05-07 17:42 46.40040 -62.11459 37724 ft 394 kts 241°
2026-05-07 17:42 46.37439 -62.18459 37708 ft 394 kts 241°
2026-05-07 17:43 46.34827 -62.25468 37715 ft 394 kts 241°
2026-05-07 17:43 46.32220 -62.32445 37697 ft 394 kts 241°
2026-05-07 17:44 46.29607 -62.39421 37689 ft 393 kts 241°
2026-05-07 17:44 46.27016 -62.46323 37703 ft 392 kts 241°
2026-05-07 17:45 46.24413 -62.53242 37701 ft 391 kts 241°
2026-05-07 17:45 46.21805 -62.60155 37676 ft 391 kts 241°
2026-05-07 17:46 46.19188 -62.67072 37691 ft 391 kts 241°
2026-05-07 17:46 46.16569 -62.73985 37691 ft 392 kts 241°
2026-05-07 17:47 46.13958 -62.80843 37683 ft 389 kts 241°
2026-05-07 17:47 46.11352 -62.87680 37656 ft 388 kts 241°
2026-05-07 17:48 46.08740 -62.94512 37657 ft 389 kts 241°
2026-05-07 17:48 46.06136 -63.01310 37656 ft 388 kts 241°
2026-05-07 17:49 46.03516 -63.08131 37650 ft 389 kts 241°
2026-05-07 17:49 46.00903 -63.14910 37660 ft 385 kts 241°
2026-05-07 17:50 45.98300 -63.21656 37670 ft 385 kts 241°
2026-05-07 17:50 45.95691 -63.28401 37677 ft 385 kts 241°
2026-05-07 17:51 45.93076 -63.35142 37684 ft 385 kts 241°
2026-05-07 17:51 45.90479 -63.41820 37685 ft 385 kts 241°
2026-05-07 17:52 45.87852 -63.48570 37693 ft 389 kts 240°
2026-05-07 17:52 45.85639 -63.54233 37692 ft 391 kts 240°
2026-05-07 17:53 45.82962 -63.61064 37691 ft 391 kts 240°
2026-05-07 17:53 45.80287 -63.67878 37688 ft 391 kts 240°
2026-05-07 17:54 45.77608 -63.74683 37685 ft 391 kts 240°
2026-05-07 17:54 45.74941 -63.81443 37683 ft 391 kts 240°
2026-05-07 17:55 45.72237 -63.88281 37675 ft 391 kts 240°
2026-05-07 17:55 45.69564 -63.95022 37675 ft 391 kts 240°
2026-05-07 17:56 45.66871 -64.01799 37672 ft 391 kts 240°
2026-05-07 17:56 45.64169 -64.08582 37674 ft 392 kts 240°
2026-05-07 17:57 45.61468 -64.15336 37666 ft 389 kts 240°
2026-05-07 17:57 45.58778 -64.22064 37677 ft 390 kts 240°
2026-05-07 17:58 45.56077 -64.28793 37673 ft 390 kts 240°
2026-05-07 17:58 45.53386 -64.35482 37673 ft 390 kts 240°
2026-05-07 17:59 45.50676 -64.42203 37681 ft 390 kts 240°
2026-05-07 17:59 45.47963 -64.48911 37678 ft 390 kts 240°
2026-05-07 18:00 45.45249 -64.55609 37689 ft 389 kts 240°
2026-05-07 18:00 45.42531 -64.62300 37688 ft 389 kts 240°
2026-05-07 18:01 45.39812 -64.68981 37696 ft 389 kts 240°
2026-05-07 18:01 45.37087 -64.75657 37693 ft 390 kts 240°
2026-05-07 18:02 45.33000 -64.85633 37699 ft 388 kts 240°
2026-05-07 18:03 45.30286 -64.92251 37710 ft 390 kts 240°
2026-05-07 18:03 45.27543 -64.98917 37700 ft 391 kts 240°
2026-05-07 18:04 45.24794 -65.05581 37706 ft 391 kts 240°
2026-05-07 18:04 45.22041 -65.12237 37702 ft 391 kts 240°
2026-05-07 18:05 45.19285 -65.18884 37701 ft 390 kts 240°
2026-05-07 18:05 45.16527 -65.25525 37703 ft 390 kts 240°
2026-05-07 18:06 45.13762 -65.32164 37706 ft 390 kts 240°
2026-05-07 18:06 45.11000 -65.38781 37706 ft 390 kts 240°
2026-05-07 18:07 45.08230 -65.45397 37674 ft 389 kts 240°
2026-05-07 18:07 45.05497 -65.51908 37700 ft 386 kts 240°
2026-05-07 18:08 45.02749 -65.58456 37732 ft 389 kts 240°
2026-05-07 18:08 44.99973 -65.65047 37711 ft 390 kts 240°
2026-05-07 18:09 44.97184 -65.71650 37706 ft 390 kts 240°
2026-05-07 18:09 44.94387 -65.78252 37688 ft 389 kts 240°
2026-05-07 18:10 44.91616 -65.84780 37704 ft 386 kts 240°
2026-05-07 18:10 44.88850 -65.91286 37705 ft 386 kts 240°
2026-05-07 18:11 44.86082 -65.97781 37709 ft 386 kts 240°
2026-05-07 18:11 44.83312 -66.04266 37709 ft 386 kts 240°
2026-05-07 18:12 44.80555 -66.10698 37700 ft 384 kts 240°
2026-05-07 18:12 44.77801 -66.17116 37708 ft 382 kts 240°
2026-05-07 18:13 44.75050 -66.23515 37719 ft 381 kts 240°
2026-05-07 18:13 44.72294 -66.29909 37717 ft 381 kts 240°
2026-05-07 18:14 44.69535 -66.36294 37712 ft 381 kts 240°
2026-05-07 18:14 44.66775 -66.42666 37712 ft 380 kts 240°
2026-05-07 18:15 44.64020 -66.49015 37714 ft 380 kts 240°
2026-05-07 18:15 44.61265 -66.55348 37712 ft 380 kts 240°
2026-05-07 18:16 44.58508 -66.61674 37715 ft 380 kts 240°
2026-05-07 18:16 44.55744 -66.67998 37717 ft 380 kts 240°
2026-05-07 18:17 44.52996 -66.74273 37708 ft 377 kts 240°
2026-05-07 18:17 44.50253 -66.80521 37719 ft 375 kts 240°
2026-05-07 18:18 44.47516 -66.86744 37748 ft 375 kts 240°
2026-05-07 18:18 44.44764 -66.93013 37734 ft 379 kts 241°
2026-05-07 18:19 44.42243 -66.99566 37726 ft 380 kts 244°
2026-05-07 18:19 44.40868 -67.03787 37729 ft 380 kts 247°
2026-05-07 18:20 44.38981 -67.10708 37725 ft 380 kts 249°
2026-05-07 18:20 44.37184 -67.17649 37726 ft 379 kts 249°
2026-05-07 18:21 44.35389 -67.24590 37729 ft 379 kts 249°
2026-05-07 18:21 44.33597 -67.31527 37735 ft 379 kts 249°
2026-05-07 18:22 44.31803 -67.38470 37732 ft 379 kts 249°
2026-05-07 18:22 44.30004 -67.45417 37748 ft 380 kts 249°
2026-05-07 18:23 44.28210 -67.52329 37736 ft 379 kts 249°
2026-05-07 18:23 44.26406 -67.59261 37731 ft 379 kts 249°
2026-05-07 18:24 44.24600 -67.66180 37741 ft 379 kts 249°
2026-05-07 18:24 44.22791 -67.73091 37734 ft 379 kts 249°
2026-05-07 18:25 44.20975 -67.80011 37733 ft 379 kts 249°
2026-05-07 18:25 44.19159 -67.86909 37739 ft 379 kts 249°
2026-05-07 18:26 44.17340 -67.93797 37772 ft 375 kts 249°
2026-05-07 18:26 44.15528 -68.00642 37745 ft 377 kts 249°
2026-05-07 18:27 44.13704 -68.07508 37743 ft 377 kts 249°
2026-05-07 18:27 44.11876 -68.14374 37744 ft 377 kts 249°
2026-05-07 18:28 44.10047 -68.21224 37747 ft 377 kts 249°
2026-05-07 18:28 44.08210 -68.28079 37747 ft 377 kts 249°
2026-05-07 18:29 44.06374 -68.34916 37725 ft 376 kts 249°
2026-05-07 18:29 44.04560 -68.41651 37744 ft 373 kts 249°
2026-05-07 18:30 44.02728 -68.48433 37769 ft 376 kts 249°
2026-05-07 18:30 44.00881 -68.55254 37757 ft 377 kts 249°
2026-05-07 18:31 43.99025 -68.62085 37756 ft 377 kts 249°
2026-05-07 18:31 43.97165 -68.68913 37754 ft 377 kts 249°
2026-05-07 18:32 43.95301 -68.75737 37717 ft 377 kts 249°
2026-05-07 18:32 43.93439 -68.82534 37739 ft 375 kts 249°
2026-05-07 18:33 43.91581 -68.89300 37747 ft 375 kts 249°
2026-05-07 18:33 43.89718 -68.96062 37768 ft 376 kts 249°
2026-05-07 18:34 43.87850 -69.02823 37741 ft 379 kts 248°
2026-05-07 18:34 43.85956 -69.09658 37740 ft 379 kts 248°
2026-05-07 18:35 43.84058 -69.16494 37755 ft 379 kts 248°
2026-05-07 18:35 43.82165 -69.23293 37745 ft 376 kts 248°
2026-05-07 18:36 43.80277 -69.30050 37753 ft 375 kts 248°
2026-05-07 18:36 43.78388 -69.36796 37759 ft 375 kts 248°
2026-05-07 18:37 43.76496 -69.43534 37761 ft 375 kts 248°
2026-05-07 18:37 43.74589 -69.50302 37759 ft 378 kts 248°
2026-05-07 18:38 43.72671 -69.57098 37762 ft 379 kts 248°
2026-05-07 18:38 43.70756 -69.63864 37763 ft 378 kts 248°
2026-05-07 18:39 43.68837 -69.70623 37759 ft 377 kts 248°
2026-05-07 18:39 43.66914 -69.77375 37768 ft 377 kts 248°
2026-05-07 18:40 43.64987 -69.84127 37771 ft 377 kts 248°
2026-05-07 18:40 43.63382 -69.89736 37769 ft 377 kts 248°
2026-05-07 18:41 43.61445 -69.96484 37772 ft 379 kts 248°
2026-05-07 18:41 43.59489 -70.03285 37748 ft 379 kts 248°
2026-05-07 18:42 43.57542 -70.10038 37754 ft 378 kts 248°
2026-05-07 18:42 43.55590 -70.16786 37761 ft 378 kts 248°
2026-05-07 18:43 43.53636 -70.23523 37761 ft 378 kts 248°
2026-05-07 18:43 43.51679 -70.30257 37766 ft 378 kts 248°
2026-05-07 18:44 43.49725 -70.36955 37773 ft 378 kts 248°
2026-05-07 18:44 43.47754 -70.43693 37802 ft 377 kts 248°
2026-05-07 18:45 43.45609 -70.50271 37781 ft 375 kts 242°
2026-05-07 18:45 43.42612 -70.56125 37787 ft 379 kts 233°
2026-05-07 18:46 43.38758 -70.61150 37789 ft 385 kts 224°
2026-05-07 18:46 43.34144 -70.65073 37788 ft 396 kts 214°
2026-05-07 18:47 43.28973 -70.67888 37781 ft 400 kts 210°
2026-05-07 18:47 43.23745 -70.70531 37786 ft 400 kts 210°
2026-05-07 18:48 43.18496 -70.73141 37768 ft 401 kts 209°
2026-05-07 18:48 43.13247 -70.75725 37769 ft 401 kts 209°
2026-05-07 18:49 43.07997 -70.78299 37766 ft 401 kts 209°
2026-05-07 18:49 43.02773 -70.80853 37767 ft 401 kts 209°
2026-05-07 18:50 42.97507 -70.83421 37715 ft 400 kts 210°
2026-05-07 18:50 42.92287 -70.85957 37763 ft 397 kts 210°
2026-05-07 18:51 42.87084 -70.88490 37844 ft 397 kts 209°
2026-05-07 18:51 42.81852 -70.91032 37810 ft 399 kts 209°
2026-05-07 18:52 42.76626 -70.93548 37791 ft 396 kts 210°
2026-05-07 18:52 42.71438 -70.96050 37807 ft 395 kts 210°
2026-05-07 18:53 42.66263 -70.98544 37797 ft 395 kts 210°
2026-05-07 18:53 42.61113 -71.01019 37754 ft 394 kts 210°
2026-05-07 18:54 42.55965 -71.03484 37792 ft 391 kts 210°
2026-05-07 18:54 42.50824 -71.05949 37795 ft 391 kts 210°
2026-05-07 18:55 42.45691 -71.08405 37805 ft 391 kts 210°
2026-05-07 18:55 42.40569 -71.10845 37792 ft 389 kts 210°
2026-05-07 18:56 42.35476 -71.13273 37809 ft 388 kts 210°
2026-05-07 18:56 42.30379 -71.15699 37811 ft 388 kts 210°
2026-05-07 18:57 42.25279 -71.18121 37749 ft 387 kts 211°
2026-05-07 18:57 42.20254 -71.20496 37796 ft 384 kts 211°
2026-05-07 18:58 42.15201 -71.22891 37806 ft 384 kts 211°
2026-05-07 18:58 42.10159 -71.25275 37817 ft 384 kts 211°
2026-05-07 18:59 42.05118 -71.27649 37807 ft 383 kts 211°
2026-05-07 18:59 42.00100 -71.30012 37823 ft 382 kts 211°
2026-05-07 19:00 41.95090 -71.32368 37828 ft 381 kts 211°
2026-05-07 19:00 41.90080 -71.34719 37828 ft 381 kts 211°
2026-05-07 19:01 41.85083 -71.37052 37812 ft 378 kts 211°
2026-05-07 19:01 41.80185 -71.39453 37810 ft 375 kts 214°
2026-05-07 19:02 41.75482 -71.42336 37814 ft 369 kts 218°
2026-05-07 19:02 41.71045 -71.45679 37815 ft 363 kts 221°
2026-05-07 19:03 41.66899 -71.49434 37813 ft 357 kts 225°
2026-05-07 19:03 41.63037 -71.53567 37806 ft 353 kts 227°
2026-05-07 19:03 41.61147 -71.55647 37702 ft 349 kts 227°
2026-05-07 19:04 41.59271 -71.57710 37049 ft 350 kts 227°
2026-05-07 19:04 41.57380 -71.59801 36134 ft 355 kts 227°
2026-05-07 19:04 41.55469 -71.61915 35456 ft 355 kts 227°
2026-05-07 19:04 41.53569 -71.64016 34835 ft 354 kts 227°
2026-05-07 19:05 41.51675 -71.66115 34089 ft 354 kts 227°
2026-05-07 19:05 41.49775 -71.68223 33311 ft 355 kts 227°
2026-05-07 19:05 41.47872 -71.70335 32479 ft 356 kts 227°
2026-05-07 19:05 41.45958 -71.72460 31309 ft 359 kts 227°
2026-05-07 19:06 41.44019 -71.74617 30023 ft 367 kts 226°
2026-05-07 19:06 41.40105 -71.78939 28359 ft 366 kts 226°
2026-05-07 19:06 41.38143 -71.81103 27636 ft 364 kts 226°
2026-05-07 19:07 41.36214 -71.83226 27167 ft 356 kts 226°
2026-05-07 19:07 41.34331 -71.85300 26484 ft 354 kts 226°
2026-05-07 19:07 41.32441 -71.87383 25828 ft 352 kts 226°
2026-05-07 19:07 41.30559 -71.89455 25220 ft 349 kts 226°
2026-05-07 19:08 41.28697 -71.91505 24645 ft 347 kts 226°
2026-05-07 19:08 41.26841 -71.93546 24035 ft 345 kts 226°
2026-05-07 19:08 41.24997 -71.95573 23443 ft 343 kts 225°
2026-05-07 19:08 41.23163 -71.97587 22719 ft 341 kts 225°
2026-05-07 19:09 41.21334 -71.99594 22111 ft 339 kts 225°
2026-05-07 19:09 41.19511 -72.01593 22038 ft 342 kts 225°
2026-05-07 19:09 41.17670 -72.03611 21790 ft 343 kts 225°
2026-05-07 19:09 41.15831 -72.05623 21523 ft 342 kts 225°
2026-05-07 19:10 41.13992 -72.07633 21260 ft 342 kts 225°
2026-05-07 19:10 41.12235 -72.09766 21004 ft 341 kts 231°
2026-05-07 19:10 41.10756 -72.12210 20751 ft 339 kts 237°
2026-05-07 19:10 41.09552 -72.14897 20491 ft 339 kts 243°
2026-05-07 19:11 41.08638 -72.17779 20258 ft 339 kts 249°
2026-05-07 19:11 41.07871 -72.20732 20016 ft 338 kts 250°
2026-05-07 19:11 41.07112 -72.23680 19768 ft 337 kts 250°
2026-05-07 19:11 41.06369 -72.26592 19480 ft 338 kts 250°
2026-05-07 19:12 41.05612 -72.29583 18902 ft 337 kts 250°
2026-05-07 19:12 41.04877 -72.32503 18220 ft 339 kts 250°
2026-05-07 19:12 41.04127 -72.35489 17403 ft 342 kts 251°
2026-05-07 19:12 41.03376 -72.38492 16712 ft 341 kts 251°
2026-05-07 19:13 41.02632 -72.41468 16109 ft 339 kts 251°
2026-05-07 19:13 41.01895 -72.44418 15608 ft 334 kts 251°
2026-05-07 19:13 41.01170 -72.47315 15194 ft 328 kts 251°
2026-05-07 19:13 41.00455 -72.50170 14765 ft 324 kts 250°
2026-05-07 19:14 40.99749 -72.52985 14319 ft 320 kts 250°
2026-05-07 19:14 40.99049 -72.55774 13874 ft 317 kts 250°
2026-05-07 19:14 40.98354 -72.58540 13398 ft 315 kts 250°
2026-05-07 19:14 40.97663 -72.61279 12944 ft 311 kts 251°
2026-05-07 19:15 40.96990 -72.63948 12798 ft 298 kts 251°
2026-05-07 19:15 40.96350 -72.66492 12683 ft 285 kts 251°
2026-05-07 19:15 40.95736 -72.68923 12555 ft 272 kts 251°
2026-05-07 19:15 40.95148 -72.71247 12431 ft 260 kts 251°
2026-05-07 19:16 40.94587 -72.73466 12323 ft 248 kts 251°
2026-05-07 19:16 40.94051 -72.75582 12217 ft 237 kts 251°
2026-05-07 19:16 40.93540 -72.77576 12132 ft 227 kts 249°
2026-05-07 19:16 40.92792 -72.79383 12024 ft 222 kts 237°
2026-05-07 19:17 40.91699 -72.80954 12002 ft 239 kts 226°
2026-05-07 19:17 40.90370 -72.82308 12005 ft 247 kts 223°
2026-05-07 19:17 40.88985 -72.83670 11984 ft 249 kts 223°
2026-05-07 19:17 40.87584 -72.85031 11993 ft 250 kts 222°
2026-05-07 19:18 40.86180 -72.86387 11998 ft 250 kts 222°
2026-05-07 19:18 40.84776 -72.87739 11999 ft 250 kts 222°
2026-05-07 19:18 40.83368 -72.89093 11997 ft 250 kts 222°
2026-05-07 19:18 40.81956 -72.90447 11997 ft 250 kts 222°
2026-05-07 19:19 40.80547 -72.91798 11996 ft 250 kts 222°
2026-05-07 19:19 40.79139 -72.93145 11995 ft 250 kts 222°
2026-05-07 19:19 40.77728 -72.94495 12002 ft 250 kts 222°
2026-05-07 19:19 40.76314 -72.95848 12010 ft 251 kts 222°
2026-05-07 19:20 40.74900 -72.97199 11996 ft 251 kts 222°
2026-05-07 19:20 40.73485 -72.98550 11885 ft 252 kts 222°
2026-05-07 19:20 40.72062 -72.99909 11498 ft 252 kts 222°
2026-05-07 19:20 40.70645 -73.01260 11146 ft 250 kts 222°
2026-05-07 19:21 40.69316 -73.02692 10824 ft 243 kts 232°
2026-05-07 19:21 40.68347 -73.04442 10515 ft 237 kts 244°
2026-05-07 19:21 40.67696 -73.06418 10212 ft 234 kts 250°
2026-05-07 19:21 40.67119 -73.08416 9890 ft 233 kts 251°
2026-05-07 19:22 40.66548 -73.10416 9548 ft 232 kts 251°
2026-05-07 19:22 40.65981 -73.12409 9177 ft 232 kts 252°
2026-05-07 19:22 40.65412 -73.14414 8806 ft 233 kts 252°
2026-05-07 19:22 40.64845 -73.16421 8431 ft 234 kts 252°
2026-05-07 19:23 40.64272 -73.18444 8069 ft 236 kts 253°
2026-05-07 19:23 40.63695 -73.20483 7700 ft 238 kts 253°
2026-05-07 19:23 40.63125 -73.22505 7348 ft 239 kts 254°
2026-05-07 19:23 40.62536 -73.24591 6987 ft 240 kts 254°
2026-05-07 19:24 40.61947 -73.26669 6655 ft 241 kts 255°
2026-05-07 19:24 40.61367 -73.28719 6331 ft 243 kts 255°
2026-05-07 19:24 40.60777 -73.30816 5981 ft 245 kts 254°
2026-05-07 19:24 40.60185 -73.32942 5611 ft 248 kts 253°
2026-05-07 19:25 40.59579 -73.35094 5261 ft 251 kts 252°
2026-05-07 19:25 40.58965 -73.37255 4948 ft 252 kts 252°
2026-05-07 19:25 40.58348 -73.39423 4630 ft 253 kts 251°
2026-05-07 19:25 40.57726 -73.41595 4329 ft 253 kts 251°
2026-05-07 19:26 40.57106 -73.43761 4051 ft 252 kts 251°
2026-05-07 19:26 40.56485 -73.45921 3771 ft 252 kts 251°
2026-05-07 19:26 40.55880 -73.48045 3506 ft 251 kts 252°
2026-05-07 19:26 40.55268 -73.50195 3244 ft 250 kts 251°
2026-05-07 19:27 40.54695 -73.52297 3192 ft 237 kts 261°
2026-05-07 19:27 40.54751 -73.54361 3160 ft 220 kts 289°
2026-05-07 19:27 40.55349 -73.56152 3159 ft 209 kts 301°
2026-05-07 19:27 40.56115 -73.57757 3123 ft 206 kts 304°
2026-05-07 19:28 40.56891 -73.59336 2968 ft 206 kts 303°
2026-05-07 19:28 40.57645 -73.60945 2686 ft 206 kts 302°
2026-05-07 19:28 40.58376 -73.62567 2397 ft 206 kts 301°
2026-05-07 19:28 40.58855 -73.63642 2186 ft 204 kts 301°
2026-05-07 19:29 40.59572 -73.65249 1929 ft 201 kts 301°
2026-05-07 19:29 40.60260 -73.66787 1711 ft 187 kts 300°
2026-05-07 19:29 40.60906 -73.68228 1472 ft 178 kts 300°
2026-05-07 19:29 40.61526 -73.69610 1207 ft 171 kts 301°
2026-05-07 19:30 40.62118 -73.70926 939 ft 162 kts 301°
2026-05-07 19:30 40.62669 -73.72153 676 ft 150 kts 303°
2026-05-07 19:30 40.63179 -73.73309 462 ft 143 kts 303°
2026-05-07 19:30 40.63686 -73.74438 294 ft 143 kts 305°
2026-05-07 19:31 40.64196 -73.75559 129 ft 143 kts 305°
2026-05-07 19:31 40.64697 -73.76639 29 ft 122 kts 302°
2026-05-07 19:31 40.65021 -73.77350 27 ft 59 kts 302°
2026-05-07 19:31 40.65134 -73.77606 28 ft 21 kts 299°
2026-05-07 19:32 40.65208 -73.77775 27 ft 22 kts 300°
2026-05-07 19:32 40.65187 -73.77922 28 ft 16 kts 229°
2026-05-07 19:32 40.65118 -73.77975 30 ft 8 kts 170°
2026-05-07 19:32 40.65063 -73.77914 29 ft 13 kts 128°
2026-05-07 19:33 40.65004 -73.77792 29 ft 17 kts 119°
2026-05-07 19:33 40.64939 -73.77647 30 ft 20 kts 126°
2026-05-07 19:33 40.64859 -73.77481 29 ft 23 kts 121°
2026-05-07 19:33 40.64771 -73.77287 32 ft 26 kts 120°
2026-05-07 19:34 40.64644 -73.77101 31 ft 30 kts 165°
2026-05-07 19:34 40.64439 -73.77109 31 ft 28 kts 200°
2026-05-07 19:34 40.64260 -73.77240 31 ft 31 kts 211°
2026-05-07 19:34 40.64068 -73.77389 31 ft 34 kts 210°
2026-05-07 19:35 40.63852 -73.77557 28 ft 38 kts 211°
2026-05-07 19:35 40.63636 -73.77727 29 ft 31 kts 210°
2026-05-07 19:35 40.63468 -73.77859 31 ft 26 kts 212°
2026-05-07 19:35 40.63429 -73.78079 33 ft 30 kts 298°
2026-05-07 19:36 40.63518 -73.78262 33 ft 16 kts 325°
2026-05-07 19:36 40.63646 -73.78263 31 ft 20 kts 357°
2026-05-07 19:36 40.63705 -73.78270 31 ft 9 kts 353°
2026-05-07 19:36 40.63759 -73.78275 31 ft 8 kts 11°
2026-05-07 19:37 40.63785 -73.78223 31 ft 4 kts 73°
2026-05-07 19:37 40.63788 -73.78206 31 ft 0 kts 80°